Hourly Data Report for September 21, 2017

All times are specified in Local Standard Time (LST). Add 1 hour to adjust for Daylight Saving Time where and when it is observed.

CHARLOTTETOWN A
PRINCE EDWARD ISLAND

46°17'21.000" N
63°07'09.000" W
48.50 m
8300301
71706
YYG

Download Data

Hourly Data (September 2017)
Hourly Data Report for September 21, 2017
Temp Definition
°C
Dew Point Temp Definition
°C
Rel Hum Definition
%
Wind Dir Definition
10's deg

Wind Spd Definition
km/h
Visibility Definition
km
Stn Press Definition
kPa
Hmdx Definition


Wind Chill Definition


Weather Definition


TIME
00:00 Legend Double Dagger 14.7 13.7 94 36 11 24.1 101.20     LegendNANA
01:00 Legend Double Dagger 13.7 12.9 95 36 6 24.1 101.21     LegendNANA
02:00 Legend Double Dagger 13.1 12.4 96 34 8 24.1 101.20     Clear
03:00 Legend Double Dagger 13.1 12.3 95 1 10 24.1 101.21     LegendNANA
04:00 Legend Double Dagger 12.4 10.9 90 36 8 24.1 101.26     LegendNANA
05:00 Legend Double Dagger 12.0 10.4 90 35 6 24.1 101.30     Clear
06:00 Legend Double Dagger 11.2 10.1 93 33 6 24.1 101.32     LegendNANA
07:00 Legend Double Dagger 12.7 11.9 95 1 9 24.1 101.37     LegendNANA
08:00 Legend Double Dagger 15.8 13.6 86 3 21 24.1 101.43     Mainly Clear
09:00 Legend Double Dagger 16.9 11.1 68 5 30 24.1 101.48     LegendNANA
10:00 Legend Double Dagger 17.7 11.1 65 4 26 24.1 101.56     LegendNANA
11:00 Legend Double Dagger 17.8 8.2 53 4 27 24.1 101.58     Mainly Clear
12:00 Legend Double Dagger 17.8 6.0 46 4 32 24.1 101.60     LegendNANA
13:00 Legend Double Dagger 18.1 7.6 50 3 30 24.1 101.59     LegendNANA
14:00 Legend Double Dagger 17.2 7.6 53 3 28 24.1 101.61     Mainly Clear
15:00 Legend Double Dagger 16.7 8.5 58 3 24 24.1 101.62     LegendNANA
16:00 Legend Double Dagger 16.0 9.0 63 3 21 24.1 101.64     LegendNANA
17:00 Legend Double Dagger 14.9 8.2 64 4 22 24.1 101.67     Mainly Clear
18:00 Legend Double Dagger 12.6 8.1 74 4 10 24.1 101.71     LegendNANA
19:00 Legend Double Dagger 9.8 7.4 85 3 4 24.1 101.73     LegendNANA
20:00 Legend Double Dagger 9.0 7.6 91 1 5 24.1 101.73     Mainly Clear
21:00 Legend Double Dagger 8.6 7.4 92 4 7 24.1 101.74     LegendNANA
22:00 Legend Double Dagger 7.7 6.3 91 2 9 24.1 101.76     LegendNANA
23:00 Legend Double Dagger 6.8 5.5 91 5 5 24.1 101.78     Clear

Notes on Data Quality.

Legend

  • E = Estimated
  • M = Missing
  • NA = Not Available
  • ‡ = Partner data that is not subject to review by the National Climate Archives
Date modified: